Phuket, Thailand

3:52 AM +07 on October 24, 2017 (GMT +0700)
Phuket International

Weather History for VTSP - October, 2017

Change the Weather History Date:

Friday, October 13, 2017

  Actual Average Record
Temperature  
Mean Temperature 79 °F -  
Max Temperature 85 °F 87 °F 95 °F (1997)
Min Temperature 73 °F 76 °F 68 °F (2015)
Cooling Degree Days 14    
Growing Degree Days 29 (Base 50)    
Moisture  
Dew Point 75 °F    
Average Humidity 88    
Maximum Humidity 97    
Minimum Humidity 74    
Precipitation  
Precipitation 1.65 in 0.37 in - ()
Sea Level Pressure  
Sea Level Pressure 29.81 in    
Wind  
Wind Speed 3 mph ()    
Max Wind Speed 31 mph    
Max Gust Speed 34 mph    
Visibility 3.9 miles    
Events Rain    
Averages and records for this station are not official NWS values.
T = Trace of Precipitation, MM = Missing Value Source: Averaged Metar Reports

Daily Weather History Graph

Daily Weather History Graph

Search for Another Location

Airport or City:

Trip Planner

Search our weather history database for the weather conditions in past years. The results will help you decide how hot, cold, wet, or windy it might be!

Date:

Astronomy

Oct. 13, 2017 Rise Set
Actual Time 6:14 AM +07 6:11 PM +07
Civil Twilight 5:53 AM +07 6:32 PM +07
Nautical Twilight 5:28 AM +07 6:57 PM +07
Astronomical Twilight 5:04 AM +07 7:21 PM +07
Moon 12:24 AM +07 (10/13) 1:14 PM +07 (10/13)
Length of Visible Light 12h 39m
Length of Day
11h 57m
Last Quarter, 42% of the Moon is Illuminated
Oct 13
Last Quarter
Oct 20
New
Oct 28
First Quarter
Nov 4
Full
Nov 11
Last Quarter

Hourly Weather History & Observations

Time (+07) Temp. Heat Index Dew Point Humidity Pressure Visibility Wind Dir Wind Speed Gust Speed Precip Events Conditions
12:00 AM 77.0 °F - 75.2 °F 94% 29.83 in 4.3 mi SSE 1.2 mph - N/A   Mostly Cloudy
12:30 AM 77.0 °F - 75.2 °F 94% 29.83 in 4.3 mi SSE 2.3 mph - N/A   Mostly Cloudy
1:00 AM 78 °F - 77 °F 94% 29.77 in 5 mi Calm Calm - -   Mist
1:00 AM 77.0 °F - 75.2 °F 94% 29.83 in 5.0 mi SE 2.3 mph - N/A   Mostly Cloudy
1:30 AM 77.0 °F - 75.2 °F 94% 29.80 in 5.0 mi Calm Calm - N/A   Mostly Cloudy
2:00 AM 77.0 °F - 73.4 °F 89% 29.80 in 5.0 mi SSE 2.3 mph - N/A   Mostly Cloudy
3:30 AM 77.0 °F - 73.4 °F 89% 29.80 in 5.0 mi Calm Calm - N/A   Mostly Cloudy
4:00 AM 78 °F - 77 °F 94% 29.73 in 5 mi Calm Calm - -   Mist
5:00 AM 75.2 °F - 73.4 °F 94% 29.77 in 5.0 mi Calm Calm - N/A   Mostly Cloudy
5:30 AM 77.0 °F - 73.4 °F 89% 29.71 in 1.2 mi West 23.0 mph 34.5 mph N/A Rain Heavy Rain
6:00 AM 75.2 °F - 71.6 °F 89% 29.83 in 1.2 mi WSW 10.4 mph - N/A Rain Heavy Rain
6:30 AM 75.2 °F - 73.4 °F 94% 29.83 in 1.9 mi NNW 3.5 mph - N/A Rain Rain
7:00 AM 76 °F - 75 °F 97% 29.75 in 2 mi ENE 1.2 mph - - Rain Light Rain
7:00 AM 75.2 °F - 73.4 °F 94% 29.83 in 1.9 mi Variable 1.2 mph - N/A Rain Rain
7:30 AM 77.0 °F - 75.2 °F 94% 29.86 in 3.1 mi Variable 2.3 mph - N/A Rain Light Rain
8:00 AM 77.0 °F - 75.2 °F 94% 29.86 in 3.1 mi Variable 2.3 mph - N/A Rain Light Rain
8:30 AM 78.8 °F - 77.0 °F 94% 29.86 in 3.1 mi Variable 2.3 mph - N/A Rain Light Rain
9:00 AM 80.6 °F 86.2 °F 75.2 °F 84% 29.86 in 4.3 mi WNW 6.9 mph - N/A   Mostly Cloudy
9:30 AM 82.4 °F 90.9 °F 77.0 °F 84% 29.86 in 4.3 mi WNW 4.6 mph - N/A   Mostly Cloudy
10:00 AM 83 °F - 78 °F 82% 29.83 in 5 mi Calm Calm - -   Mist
10:00 AM 84.2 °F 92.3 °F 75.2 °F 74% 29.86 in 5.0 mi West 5.8 mph - N/A   Mostly Cloudy
10:30 AM 84.2 °F 92.3 °F 75.2 °F 74% 29.86 in 3.1 mi West 6.9 mph - N/A Rain Rain
11:00 AM 78.8 °F - 75.2 °F 89% 29.86 in 4.3 mi SSW 3.5 mph - N/A   Mostly Cloudy
11:30 AM 80.6 °F 86.2 °F 75.2 °F 84% 29.83 in 5.0 mi Variable 2.3 mph - N/A   Mostly Cloudy
12:00 PM 80.6 °F 86.2 °F 75.2 °F 84% 29.83 in 5.0 mi Variable 2.3 mph - N/A   Mostly Cloudy
12:30 PM 84.2 °F 94.1 °F 77.0 °F 79% 29.80 in 3.1 mi Variable 4.6 mph - N/A Rain Rain
1:00 PM 83 °F - 79 °F 83% 29.77 in 3 mi Calm Calm - - Rain Light Rain
1:00 PM 84.2 °F 94.1 °F 77.0 °F 79% 29.80 in 4.3 mi Variable 3.5 mph - N/A Rain Light Rain
1:30 PM 84.2 °F 94.1 °F 77.0 °F 79% 29.77 in 3.1 mi Variable 3.5 mph 16.1 mph N/A Rain Rain
2:00 PM 78.8 °F - 75.2 °F 89% 29.77 in 3.1 mi WSW 6.9 mph - N/A Rain Rain
2:30 PM 78.8 °F - 75.2 °F 89% 29.77 in 4.3 mi West 3.5 mph - N/A Rain Light Rain
3:00 PM 77.0 °F - 73.4 °F 89% 29.77 in 3.1 mi East 3.5 mph - N/A Rain Rain
3:30 PM 77.0 °F - 73.4 °F 89% 29.74 in 1.9 mi Variable 3.5 mph - N/A Rain Rain
4:00 PM 78 °F - 75 °F 87% 29.71 in 3 mi SSW 5.8 mph - - Rain Light Rain
4:00 PM 77.0 °F - 73.4 °F 89% 29.77 in 1.9 mi Variable 4.6 mph 16.1 mph N/A Rain Heavy Rain
4:30 PM 77.0 °F - 73.4 °F 89% 29.77 in 1.9 mi Variable 3.5 mph - N/A Rain Heavy Rain
5:00 PM 78.8 °F - 73.4 °F 83% 29.77 in 3.1 mi WSW 31.1 mph - N/A Rain Rain
5:30 PM 78.8 °F - 73.4 °F 83% 29.77 in 3.1 mi West 13.8 mph - N/A Rain Rain
6:00 PM 78.8 °F - 73.4 °F 83% 29.80 in 4.3 mi WSW 10.4 mph - N/A Rain Light Rain
6:30 PM 77.0 °F - 73.4 °F 89% 29.80 in 5.0 mi SSW 3.5 mph - N/A Rain Light Rain
7:00 PM 78 °F - 75 °F 89% 29.73 in 5 mi Calm Calm - - Rain Light Rain
7:00 PM 77.0 °F - 71.6 °F 83% 29.80 in 5.0 mi SW 4.6 mph - N/A Rain Light Rain
7:30 PM 77.0 °F - 71.6 °F 83% 29.83 in 5.0 mi Variable 2.3 mph - N/A Rain Light Rain
8:00 PM 75.2 °F - 73.4 °F 94% 29.83 in 4.3 mi Variable 1.2 mph - N/A Rain Light Rain
8:30 PM 75.2 °F - 73.4 °F 94% 29.83 in 4.3 mi SSW 3.5 mph - N/A Rain Light Rain
9:00 PM 77.0 °F - 73.4 °F 89% 29.86 in 4.3 mi SSW 3.5 mph - N/A Rain Light Rain
9:30 PM 77.0 °F - 73.4 °F 89% 29.86 in 4.3 mi Variable 2.3 mph - N/A Rain Light Rain
10:00 PM 77 °F - 76 °F 94% 29.77 in 4 mi Calm Calm - - Rain Light Rain
10:00 PM 77.0 °F - 73.4 °F 89% 29.86 in 5.0 mi Variable 1.2 mph - N/A   Mostly Cloudy
10:30 PM 77.0 °F - 73.4 °F 89% 29.86 in 5.0 mi Variable 2.3 mph - N/A   Mostly Cloudy
11:00 PM 77.0 °F - 73.4 °F 89% 29.86 in 5.0 mi East 2.3 mph - N/A   Mostly Cloudy
11:30 PM 77.0 °F - 73.4 °F 89% 29.83 in 5.0 mi Calm Calm - N/A   Mostly Cloudy